Tracking 26933 objects as of 5-Feb-2023
HD Live streaming from Space Station
objects crossing your sky now

IRIDIUM 128

Track IRIDIUM 128 now!
10-day predictions
IRIDIUM 128 is classified as:


NORAD ID: 42811
Int'l Code: 2017-039J
Perigee: 783.2 km
Apogee: 786.4 km
Inclination: 86.4 °
Period: 100.4 minutes
Semi major axis: 7155 km
RCS: Unknown
Launch date: June 25, 2017
Source: United States (US)
Launch site: AIR FORCE WESTERN TEST RANGE (AFWTR)
Your satellite tracking list
Your tracking list is empty




NASA's NSSDC Master Catalog

Two Line Element Set (TLE):
1 42811U 17039J   23035.86462757  .00000361  00000-0  12182-3 0  9991
2 42811  86.4020 178.4887 0002268  96.3737 263.7717 14.34218543293927
Source of the keplerian elements: AFSPC